When you browse on this site, cookies collect data to enhance your experience and personalize the content and advertising you see.
Visit our Privacy Policy to learn more. By continuing to use the site, you agree to this use of cookies and data.
  • In Hungary
  • List of Countries
  • For 7 days
  • Water Temperature
  • Weather Map
  • News
  • Weather Widgets
  • user-avatar
    Login

    Hourly Weather Sofia

    Today, 2 June, Tuesday

    Time Temperature Precipitation Wind Pressure Humidity
    00:00 +9°C° 0 mm 1 mps 707 mmHg 93%
    01:00 +9°C° 0 mm 1 mps 707 mmHg 93%
    02:00 +9°C° 0 mm 1 mps 707 mmHg 94%
    03:00 +9°C° 0 mm 1 mps 706 mmHg 93%
    04:00 +9°C° 0 mm 1 mps 706 mmHg 93%
    05:00 +10°C° 0 mm 1 mps 706 mmHg 92%
    06:00 +10°C° 0 mm 2 mps 706 mmHg 87%
    07:00 +12°C° 0 mm 2 mps 706 mmHg 82%
    08:00 +13°C° 0 mm 3 mps 706 mmHg 77%
    09:00 +14°C° 0.1 mm 3 mps 706 mmHg 72%
    10:00 +16°C° 0.1 mm 3 mps 706 mmHg 68%
    11:00 +17°C° 0.1 mm 3 mps 706 mmHg 64%
    12:00 +17°C° 0.6 mm 3 mps 706 mmHg 67%
    13:00 +17°C° 0.6 mm 3 mps 706 mmHg 69%
    14:00 +15°C° 0.6 mm 4 mps 705 mmHg 72%
    15:00 +15°C° 0.5 mm 4 mps 705 mmHg 74%
    16:00 +14°C° 0.5 mm 4 mps 705 mmHg 76%
    17:00 +14°C° 0.5 mm 4 mps 705 mmHg 78%
    18:00 +12°C° 0.2 mm 3 mps 705 mmHg 80%
    19:00 +11°C° 0.2 mm 3 mps 705 mmHg 82%
    20:00 +10°C° 0.2 mm 2 mps 705 mmHg 85%
    21:00 +9°C° 0 mm 2 mps 705 mmHg 86%
    22:00 +9°C° 0 mm 1 mps 706 mmHg 87%
    23:00 +8°C° 0 mm 1 mps 706 mmHg 89%

    Tomorrow, 3 June, Wednesday

    Time Temperature Precipitation Wind Pressure Humidity
    00:00 +8°C° 0 mm 1 mps 706 mmHg 89%
    01:00 +7°C° 0 mm 1 mps 706 mmHg 89%
    02:00 +7°C° 0 mm 1 mps 706 mmHg 90%
    03:00 +7°C° 0 mm 1 mps 705 mmHg 90%
    04:00 +6°C° 0 mm 1 mps 705 mmHg 91%
    05:00 +6°C° 0 mm 1 mps 705 mmHg 91%
    06:00 +8°C° 0 mm 1 mps 705 mmHg 86%
    07:00 +10°C° 0 mm 1 mps 705 mmHg 82%
    08:00 +12°C° 0 mm 1 mps 706 mmHg 77%
    09:00 +14°C° 0 mm 2 mps 706 mmHg 71%
    10:00 +15°C° 0 mm 2 mps 706 mmHg 64%
    11:00 +17°C° 0 mm 2 mps 706 mmHg 58%
    12:00 +17°C° 0.3 mm 2 mps 706 mmHg 57%
    13:00 +18°C° 0.3 mm 2 mps 706 mmHg 57%
    14:00 +18°C° 0.3 mm 3 mps 705 mmHg 57%
    15:00 +18°C° 0.2 mm 2 mps 705 mmHg 56%
    16:00 +18°C° 0.2 mm 2 mps 705 mmHg 56%
    17:00 +18°C° 0.2 mm 2 mps 705 mmHg 56%
    18:00 +16°C° 0 mm 2 mps 705 mmHg 63%
    19:00 +14°C° 0 mm 1 mps 705 mmHg 71%
    20:00 +12°C° 0 mm 1 mps 705 mmHg 78%
    21:00 +12°C° 0 mm 1 mps 705 mmHg 79%
    22:00 +11°C° 0 mm 1 mps 705 mmHg 80%
    23:00 +10°C° 0 mm 1 mps 705 mmHg 81%

    Day after tomorrow, 4 June, Thursday

    Time Temperature Precipitation Wind Pressure Humidity
    00:00 +10°C° 0 mm 1 mps 705 mmHg 82%
    01:00 +10°C° 0 mm 1 mps 705 mmHg 83%
    02:00 +10°C° 0 mm 1 mps 705 mmHg 84%
    03:00 +9°C° 0 mm 1 mps 705 mmHg 84%
    04:00 +9°C° 0 mm 1 mps 705 mmHg 84%
    05:00 +9°C° 0 mm 1 mps 705 mmHg 84%
    06:00 +11°C° 0 mm 1 mps 705 mmHg 78%
    07:00 +13°C° 0 mm 1 mps 705 mmHg 71%
    08:00 +15°C° 0 mm 1 mps 705 mmHg 64%
    09:00 +17°C° 0 mm 2 mps 706 mmHg 59%
    10:00 +19°C° 0 mm 2 mps 706 mmHg 55%
    11:00 +21°C° 0 mm 3 mps 706 mmHg 50%
    12:00 +22°C° 0 mm 3 mps 706 mmHg 48%
    13:00 +23°C° 0 mm 4 mps 706 mmHg 47%
    14:00 +25°C° 0 mm 5 mps 706 mmHg 45%
    15:00 +23°C° 0 mm 5 mps 706 mmHg 48%
    16:00 +23°C° 0 mm 5 mps 706 mmHg 51%
    17:00 +23°C° 0 mm 5 mps 706 mmHg 54%
    18:00 +21°C° 0 mm 4 mps 706 mmHg 60%
    19:00 +19°C° 0 mm 3 mps 706 mmHg 67%
    20:00 +17°C° 0 mm 3 mps 706 mmHg 74%
    21:00 +16°C° 0 mm 2 mps 706 mmHg 76%
    22:00 +15°C° 0 mm 2 mps 706 mmHg 77%
    23:00 +14°C° 0 mm 2 mps 706 mmHg 78%

    5 June, Friday

    Time Temperature Precipitation Wind Pressure Humidity
    00:00 +14°C° 0 mm 2 mps 706 mmHg 80%
    01:00 +14°C° 0 mm 1 mps 706 mmHg 82%
    02:00 +13°C° 0 mm 1 mps 706 mmHg 84%
    03:00 +13°C° 0 mm 1 mps 706 mmHg 85%
    04:00 +13°C° 0 mm 1 mps 705 mmHg 86%
    05:00 +12°C° 0 mm 1 mps 705 mmHg 87%
    06:00 +14°C° 0 mm 1 mps 705 mmHg 80%
    07:00 +16°C° 0 mm 2 mps 706 mmHg 73%
    08:00 +18°C° 0 mm 2 mps 706 mmHg 67%
    09:00 +20°C° 0 mm 3 mps 706 mmHg 61%
    10:00 +22°C° 0 mm 3 mps 706 mmHg 55%
    11:00 +25°C° 0 mm 4 mps 706 mmHg 49%
    12:00 +25°C° 0 mm 4 mps 705 mmHg 49%
    13:00 +25°C° 0 mm 5 mps 705 mmHg 49%
    14:00 +24°C° 0 mm 6 mps 705 mmHg 49%
    15:00 +22°C° 0.6 mm 5 mps 705 mmHg 61%
    16:00 +20°C° 0.6 mm 4 mps 705 mmHg 73%
    17:00 +17°C° 0.6 mm 3 mps 704 mmHg 85%
    18:00 +17°C° 0 mm 3 mps 704 mmHg 86%
    19:00 +16°C° 0 mm 3 mps 704 mmHg 87%
    20:00 +16°C° 0 mm 3 mps 704 mmHg 88%
    21:00 +14°C° 0 mm 3 mps 704 mmHg 88%
    22:00 +14°C° 0 mm 3 mps 704 mmHg 89%
    23:00 +14°C° 0 mm 2 mps 704 mmHg 89%

    6 June, Saturday

    Time Temperature Precipitation Wind Pressure Humidity
    00:00 +14°C° 0 mm 2 mps 704 mmHg 90%
    01:00 +13°C° 0 mm 2 mps 704 mmHg 90%
    02:00 +13°C° 0 mm 1 mps 703 mmHg 90%
    03:00 +13°C° 0 mm 2 mps 703 mmHg 90%
    04:00 +13°C° 0 mm 2 mps 703 mmHg 91%
    05:00 +13°C° 0 mm 2 mps 703 mmHg 91%
    06:00 +14°C° 0 mm 2 mps 703 mmHg 86%
    07:00 +16°C° 0 mm 2 mps 704 mmHg 82%
    08:00 +17°C° 0 mm 2 mps 704 mmHg 77%
    09:00 +18°C° 0.6 mm 3 mps 704 mmHg 75%
    10:00 +19°C° 0.6 mm 4 mps 705 mmHg 72%
    11:00 +21°C° 0.6 mm 5 mps 705 mmHg 69%
    12:00 +20°C° 1.1 mm 5 mps 705 mmHg 68%
    13:00 +20°C° 1.1 mm 5 mps 705 mmHg 68%
    14:00 +20°C° 1.1 mm 5 mps 705 mmHg 67%
    15:00 +20°C° 0.2 mm 5 mps 706 mmHg 66%
    16:00 +19°C° 0.2 mm 5 mps 706 mmHg 65%
    17:00 +19°C° 0.2 mm 5 mps 706 mmHg 64%
    18:00 +17°C° 0 mm 4 mps 706 mmHg 71%
    19:00 +14°C° 0 mm 3 mps 707 mmHg 77%
    20:00 +13°C° 0 mm 2 mps 707 mmHg 84%
    21:00 +12°C° 0 mm 2 mps 707 mmHg 85%
    22:00 +12°C° 0 mm 1 mps 708 mmHg 85%
    23:00 +11°C° 0 mm 1 mps 708 mmHg 86%

    7 June, Sunday

    Time Temperature Precipitation Wind Pressure Humidity
    00:00 +10°C° 0 mm 1 mps 708 mmHg 85%
    01:00 +10°C° 0 mm 1 mps 709 mmHg 85%
    02:00 +9°C° 0 mm 1 mps 709 mmHg 85%
    03:00 +9°C° 0 mm 1 mps 709 mmHg 85%
    04:00 +9°C° 0 mm 1 mps 709 mmHg 85%
    05:00 +9°C° 0 mm 1 mps 709 mmHg 85%
    06:00 +11°C° 0 mm 1 mps 709 mmHg 77%
    07:00 +13°C° 0 mm 1 mps 710 mmHg 70%
    08:00 +16°C° 0 mm 1 mps 710 mmHg 62%
    09:00 +19°C° 0 mm 1 mps 710 mmHg 56%
    10:00 +21°C° 0 mm 1 mps 710 mmHg 50%
    11:00 +22°C° 0 mm 1 mps 711 mmHg 43%
    12:00 +23°C° 0 mm 1 mps 710 mmHg 42%
    13:00 +24°C° 0 mm 1 mps 710 mmHg 41%
    14:00 +25°C° 0 mm 1 mps 710 mmHg 40%
    15:00 +25°C° 0 mm 1 mps 710 mmHg 41%
    16:00 +25°C° 0 mm 1 mps 710 mmHg 42%
    17:00 +25°C° 0 mm 1 mps 710 mmHg 43%
    18:00 +22°C° 0 mm 1 mps 709 mmHg 52%
    19:00 +20°C° 0 mm 1 mps 709 mmHg 60%
    20:00 +18°C° 0 mm 1 mps 709 mmHg 69%
    21:00 +16°C° 0 mm 1 mps 709 mmHg 71%
    22:00 +15°C° 0 mm 1 mps 709 mmHg 72%
    23:00 +14°C° 0 mm 1 mps 710 mmHg 74%
    Show more